Temp
25 25 25 24 25 25 25 25 24 24 25 24 22 21 21 21 21 20 20 20 20 20 20 20 20 21 20 21 22 22 20 20 19 20 22 22 21 21 20 21 21 21 22
25 24 25 24 24 24 25 25 25 24 24 24 23 22 22 21 21 21 20 20 20 19 20 20 21 21 22 22 21 22 21 20 20 20 21 22 21 21 21 21 21 22 22
25 25 24 24 24 24 25 25 25 24 24 23 23 22 22 22 21 21 21 20 20 20 21 21 21 21 21 22 23 22 21 20 20 20 21 21 21 21 21 20 21 21 22
25 25 24 25 25 25 25 25 25 24 23 23 23 23 22 22 21 21 20 20 20 20 20 20 21 21 21 20 20 20 20 19 19 19 19 20 20 20 21 21 21 21 21
26 25 26 26 26 26 25 25 25 24 23 23 22 22 22 22 21 21 21 21 21 21 21 21 21 21 20 19 20 20 20 19 19 19 19 19 19 19 20 20 21 21 21
27 27 27 26 26 26 25 25 25 24 23 23 22 22 22 22 22 22 21 21 21 21 22 22 21 21 21 19 19 19 19 19 19 19 19 19 19 19 20 21 20 19 19
27 27 27 27 26 26 25 25 24 24 23 23 23 22 22 22 22 22 22 21 22 22 22 22 21 21 20 20 20 20 19 19 19 20 19 19 19 20 21 20 19 19 20
27 27 27 27 26 26 25 25 24 24 23 23 23 23 23 23 23 23 23 22 22 22 22 22 22 21 21 20 20 19 19 19 19 19 19 19 19 20 20 20 20 19 20
26 26 27 27 26 25 25 25 24 24 24 24 23 23 23 23 23 23 23 22 23 23 22 22 22 21 21 20 19 19 19 19 19 19 20 19 19 19 19 19 19 19 19
27 27 27 27 26 26 25 25 25 24 24 24 24 24 24 24 24 23 23 23 23 23 22 21 21 21 21 20 20 19 19 19 19 19 19 19 19 19 19 19 19 19 19
28 28 27 27 27 26 26 25 25 24 24 23 24 24 23 23 23 23 23 23 23 23 21 21 22 21 21 20 20 20 20 21 20 19 19 19 19 19 19 20 19 20 19
27 26 26 26 25 25 25 24 24 23 23 23 23 23 23 22 23 23 23 23 22 23 22 21 21 21 21 21 19 20 19 19 19 19 19 19 19 20 20 20 20 20 20
26 26 26 25 25 25 24 24 23 23 23 22 22 21 22 22 22 21 21 21 22 22 22 23 21 20 20 21 22 20 18 18 18 19 19 20 20 20 20 20 20 20 19
26 25 25 24 24 24 24 24 23 22 22 21 20 19 20 21 21 21 20 20 21 21 22 21 20 19 19 20 21 21 18 18 18 19 19 20 20 19 20 20 20 20 19
23 23 23 23 23 22 22 21 21 21 20 19 19 19 19 19 21 21 19 20 20 20 19 19 19 19 19 19 19 20 19 18 18 18 19 19 19 19 19 19 19 19 18
22 22 22 22 22 21 21 20 20 20 19 19 18 18 19 19 19 19 19 19 19 18 18 18 19 19 18 18 18 19 19 18 18 17 18 18 18 18 18 19 18 18 17
22 21 21 21 21 20 20 20 19 19 19 19 18 18 18 18 18 18 19 19 19 19 18 17 17 16 17 17 17 17 18 18 17 17 17 18 18 18 18 18 18 18 17
21 20 21 20 20 20 19 19 19 19 18 17 18 18 18 18 18 17 17 17 17 17 17 17 16 16 16 16 17 16 16 17 17 18 18 18 18 17 18 17 18 17 17
20 20 20 20 20 19 19 19 20 19 18 18 17 18 17 17 17 17 16 16 16 16 16 16 16 16 17 17 17 17 17 17 18 18 18 18 18 18 18 18 18 18 18
20 20 20 20 20 20 20 19 19 19 18 18 18 17 17 16 16 15 15 14 14 15 15 15 15 16 16 17 17 17 17 17 17 17 16 17 17 17 18 17 16 16 16
20 20 20 20 20 20 21 20 20 20 20 19 18 18 17 16 16 15 15 14 14 13 13 14 15 15 15 16 16 16 16 16 16 16 16 16 16 15 15 15 15 15 16
21 20 20 20 20 20 20 19 19 19 19 18 18 18 18 17 17 16 16 15 14 14 13 14 14 14 14 15 14 14 15 15 15 15 14 14 15 15 15 15 15 15 16
20 20 20 19 19 19 19 19 19 19 19 18 18 18 18 17 17 17 16 16 16 15 15 15 15 15 14 14 14 14 15 15 15 14 14 14 15 15 15 15 14 14 15
21 21 20 20 20 20 19 19 18 18 18 18 18 17 17 18 17 17 17 16 16 16 16 15 15 15 15 15 15 15 15 15 14 14 14 14 15 14 14 14 14 14 14
21 21 20 20 21 20 19 19 18 18 18 18 18 18 19 19 18 18 17 17 17 16 16 16 16 16 15 15 15 15 15 15 14 14 14 14 14 14 14 14 14 13 13
21 21 20 20 20 20 20 19 19 18 17 17 17 18 17 17 17 17 17 17 17 18 17 17 17 17 16 16 16 16 15 15 15 14 14 14 14 14 13 13 13 13 13
Height
744 749 752 756 760 765 769 773 777 779 781 780 784 785 791 792 794 797 798 801 803 805 806 807 808 810 809 809 810 809 811 813 814 812 812 814 816 817 819 823 827 831 835
738 744 749 753 758 762 765 768 772 774 776 778 780 782 785 788 790 792 794 796 798 800 801 802 803 804 803 803 804 804 805 805 807 807 807 809 811 811 815 817 821 825 828
735 741 746 750 754 757 760 764 767 769 771 773 776 778 781 783 785 788 790 793 795 796 798 799 799 800 799 797 796 796 797 798 800 802 801 805 807 809 811 814 816 820 823
732 737 742 747 749 752 756 759 762 765 767 768 770 772 775 778 781 784 787 789 791 793 795 795 795 796 795 793 791 790 791 792 793 795 796 800 803 805 807 809 811 813 816
729 734 738 743 747 750 753 755 758 761 763 765 767 769 771 773 775 777 780 783 785 787 789 789 790 790 789 787 784 783 784 786 787 789 793 796 798 801 802 803 806 808 810
726 731 736 739 743 747 751 752 755 757 759 761 764 766 769 771 773 775 775 776 777 779 782 785 786 787 785 783 780 779 781 782 782 783 788 790 793 796 798 800 802 804 806
723 728 733 736 739 743 747 749 751 753 756 759 761 763 765 766 768 771 773 775 776 776 776 779 781 782 782 781 780 778 779 781 782 782 784 787 789 791 793 794 795 798 798
719 724 729 732 735 739 742 745 748 751 752 754 755 757 759 761 760 757 763 768 771 773 774 775 776 778 780 780 780 780 780 781 782 783 785 786 788 789 791 791 791 793 795
718 722 726 729 732 735 738 742 745 747 749 751 752 754 756 758 761 764 762 758 761 764 768 771 773 775 777 778 780 781 782 781 782 783 784 784 785 786 788 788 789 791 789
715 718 722 726 729 731 735 739 742 744 746 748 749 751 754 755 758 760 762 761 759 756 762 766 770 772 774 776 777 779 781 781 783 783 783 783 784 784 784 785 785 783 787
710 715 719 723 725 728 731 736 739 742 744 745 745 748 750 750 752 755 756 757 756 749 757 761 763 767 771 772 775 775 776 778 780 780 781 781 782 783 783 782 782 784 785
708 713 716 719 723 727 731 733 736 739 741 742 742 743 744 746 748 751 752 754 754 749 748 752 757 760 765 767 768 770 773 776 777 777 777 778 779 780 780 780 780 779 779
706 711 715 719 722 725 729 730 732 734 735 737 738 740 741 742 745 747 749 751 750 748 746 745 751 756 760 761 762 764 769 771 773 773 772 772 774 775 777 777 777 777 777
703 708 712 716 719 722 725 727 730 732 732 734 737 738 739 740 742 744 745 745 744 744 743 744 746 752 756 758 759 759 761 764 767 767 768 770 771 772 772 773 773 774 774
701 706 711 713 717 720 723 725 726 729 732 733 735 736 736 737 738 740 741 742 742 743 744 744 745 747 749 750 754 755 756 758 760 762 763 765 767 768 768 769 770 771 771
701 707 710 712 716 720 723 725 727 729 730 730 732 735 735 735 735 737 739 741 741 742 742 742 739 741 740 742 745 748 750 751 752 755 759 760 762 762 763 765 765 765 766
701 705 709 713 716 720 723 724 726 729 731 731 730 731 732 734 735 737 738 738 738 738 737 736 737 738 739 739 741 743 745 746 749 752 753 755 757 758 759 759 760 761 761
710 713 713 714 718 722 724 725 726 727 729 731 730 730 731 733 733 734 735 735 735 734 734 734 734 735 737 739 739 740 739 741 745 747 749 750 751 752 752 753 754 755 757
715 715 715 717 720 725 729 729 727 728 728 731 731 731 732 733 732 732 733 734 734 733 732 732 732 733 734 735 735 737 737 739 741 743 744 744 746 746 747 750 752 753 752
716 717 719 718 723 725 728 730 730 730 731 732 732 733 733 733 733 731 731 731 732 732 731 730 730 731 731 732 732 734 735 736 737 738 738 739 740 742 743 746 748 750 750
715 721 721 724 721 725 728 729 731 731 732 733 734 734 734 734 734 733 731 730 730 730 729 729 729 729 729 729 729 730 731 732 733 734 734 735 736 738 740 742 745 747 748
720 722 720 724 725 729 730 729 731 731 731 733 734 734 734 734 735 733 731 731 730 729 729 729 729 728 728 728 728 729 730 730 731 730 730 732 733 735 738 741 743 745 744
721 721 720 724 727 733 730 731 733 733 733 733 735 735 735 736 736 735 734 733 732 731 730 729 728 728 728 727 727 729 729 730 730 729 729 730 732 734 737 738 740 742 743
719 720 720 726 732 732 732 735 735 735 735 735 736 736 736 736 736 736 736 735 734 733 732 730 729 729 729 728 728 728 729 729 730 730 731 732 733 734 736 738 738 740 741
718 720 724 729 730 732 736 739 738 739 738 738 738 737 737 736 736 737 737 736 735 733 731 730 730 729 728 728 728 728 728 728 729 729 730 731 732 733 734 735 735 736 737
719 721 726 729 733 735 738 739 740 741 741 741 740 739 739 739 739 738 738 737 736 734 732 731 729 729 728 727 726 726 726 725 725 726 726 726 727 727 728 729 730 730 730
Wind_Speed
33 33 32 33 34 33 32 30 29 28 26 26 23 22 21 20 17 18 20 22 25 25 24 23 23 23 25 26 27 27 27 27 15 17 16 18 21 23 29 32 33 33 34
32 31 33 32 29 28 29 28 25 25 24 23 20 18 19 18 18 18 18 18 18 19 21 19 23 24 27 26 25 25 27 28 24 19 21 19 22 24 25 28 33 34 34
29 28 27 27 26 25 24 21 21 21 20 19 19 18 18 16 15 17 17 17 16 16 17 19 22 22 22 26 27 30 28 28 29 21 18 16 15 23 22 26 27 30 33
27 26 26 25 24 22 20 19 19 19 20 20 20 18 17 15 14 15 16 16 16 16 17 18 19 19 22 25 28 28 27 24 25 24 18 18 16 17 19 24 25 29 33
26 25 24 23 22 22 20 20 19 19 18 18 18 18 17 16 16 16 16 16 15 15 15 16 17 18 18 19 20 22 22 24 21 19 14 12 17 14 19 19 22 25 27
27 25 24 23 21 22 22 21 20 20 18 17 18 18 17 17 15 15 16 17 16 16 15 15 15 16 15 14 13 15 20 24 22 18 14 12 16 20 22 22 20 16 10
28 26 25 24 22 23 23 22 22 22 19 18 18 18 19 18 16 15 14 15 15 17 16 14 13 12 10 9 10 11 13 17 17 20 19 18 16 23 19 16 18 19 17
30 29 27 26 25 25 24 24 23 23 22 21 22 22 22 22 22 22 19 16 16 17 18 16 13 12 10 7 7 9 12 14 14 13 14 17 13 8 9 13 13 14 17
26 27 27 28 26 26 27 26 23 23 23 23 23 23 24 22 21 21 20 22 20 17 18 19 16 14 11 9 10 9 9 10 10 14 14 14 15 11 10 10 12 11 5
24 26 26 27 27 28 28 27 26 24 24 23 23 24 23 22 20 21 21 22 20 15 16 18 18 18 16 14 16 16 18 21 17 18 19 17 12 11 14 13 10 7 7
24 23 23 24 26 27 27 26 25 24 24 23 23 22 22 20 19 19 20 22 21 17 16 16 16 20 22 21 21 22 22 18 16 16 15 17 18 16 15 14 12 14 13
22 22 23 23 21 20 21 21 21 21 23 24 22 22 21 19 19 20 20 18 19 17 19 15 11 13 20 23 26 26 23 19 14 14 16 16 16 17 17 16 16 17 19
17 18 20 20 19 16 17 19 18 20 21 23 22 21 19 16 17 18 19 18 19 19 15 9 11 12 12 14 18 25 24 22 21 20 20 20 19 16 16 15 14 15 18
17 16 17 18 17 17 16 17 17 17 17 16 15 12 12 14 15 18 20 18 18 19 14 12 11 14 17 18 21 17 26 26 26 25 22 19 17 16 15 14 15 14 14
14 12 14 14 13 11 10 10 9 8 7 9 12 12 12 12 14 16 15 12 11 12 12 12 11 15 16 17 20 21 20 25 26 28 24 21 19 16 16 13 14 15 17
18 14 12 12 10 8 6 5 3 3 3 4 5 7 6 7 7 12 12 10 8 9 11 14 15 20 21 19 23 24 21 23 27 29 25 22 21 19 17 15 14 14 19
19 15 12 10 9 9 7 5 4 1 2 2 2 1 2 4 6 8 11 14 15 17 19 20 19 19 21 19 21 21 20 20 24 22 22 22 22 22 20 18 16 16 17
13 11 11 10 9 8 8 6 4 3 2 1 2 2 3 4 6 6 8 11 11 13 16 18 18 17 17 19 19 22 21 21 17 18 21 22 21 19 15 15 16 16 17
14 12 11 10 9 7 5 4 3 3 3 3 4 4 2 2 4 5 6 5 8 9 11 14 16 14 13 13 13 14 14 15 17 19 21 21 20 18 15 14 13 14 14
12 11 11 11 9 8 5 7 6 7 5 2 2 3 4 4 5 4 4 5 9 12 10 8 9 9 7 7 8 9 11 12 15 16 16 14 16 20 19 10 6 7 10
13 10 9 8 8 6 6 6 5 4 3 2 2 2 3 4 5 6 6 7 7 7 9 10 8 5 6 7 8 8 8 10 14 16 17 19 16 15 11 10 14 15 15
11 10 9 9 9 5 4 3 3 3 3 4 3 2 2 3 4 7 9 7 7 5 3 3 5 5 4 5 7 9 10 11 13 15 17 19 17 13 12 11 13 12 9
10 9 10 9 7 5 5 4 2 2 1 5 4 2 1 2 3 5 6 7 7 6 5 4 3 3 5 7 7 6 5 4 6 6 7 11 13 13 13 13 13 11 9
13 12 13 11 9 9 8 6 5 5 5 4 1 3 3 3 6 7 7 6 6 6 6 5 4 4 4 3 4 5 7 8 9 7 11 14 13 11 12 10 9 9 9
12 10 9 11 13 11 9 7 8 8 8 6 5 5 4 2 4 5 6 7 9 9 8 8 9 8 8 8 7 8 8 9 9 8 11 13 13 13 14 15 16 15 14
17 16 16 14 13 10 7 6 6 8 11 12 12 7 4 5 6 7 8 10 11 11 11 10 10 12 13 14 15 14 13 12 14 15 17 18 20 21 21 21 21 21 21
Wind_Direction
211 211 215 223 227 230 235 239 240 241 242 244 241 247 244 251 252 248 245 244 251 257 260 259 257 263 265 261 255 249 238 230 231 256 251 244 234 233 232 231 233 236 238
212 209 216 221 228 229 233 239 243 244 243 245 243 237 234 238 238 240 242 247 250 256 257 256 262 267 264 260 257 253 248 238 224 238 246 245 231 231 234 229 231 232 236
209 211 212 220 222 226 230 234 230 229 228 227 225 227 230 229 232 238 241 247 253 261 263 268 276 282 280 272 265 256 251 247 239 228 236 230 223 229 226 226 228 231 235
206 206 210 214 219 220 225 224 219 220 222 219 220 220 219 222 229 235 240 240 248 257 263 270 275 279 282 282 280 268 256 237 226 216 222 216 222 226 220 219 221 229 233
201 199 206 210 214 218 217 215 215 213 215 219 220 218 217 215 220 221 224 232 240 250 257 262 268 279 280 287 283 262 242 226 207 204 205 210 214 212 214 220 224 232 232
195 198 204 206 210 214 217 213 213 209 207 207 211 215 217 225 230 229 224 224 228 234 245 258 269 284 296 295 300 275 251 216 202 197 204 215 227 231 229 230 234 210 223
192 195 202 206 208 210 213 212 210 208 206 208 210 214 220 223 223 227 232 240 241 239 240 246 267 281 294 306 300 286 246 218 217 213 218 221 233 240 228 216 224 215 223
193 194 200 207 208 209 210 213 215 212 211 212 216 219 224 224 213 201 207 221 236 247 248 245 258 272 281 283 282 262 239 236 239 238 235 233 229 230 230 221 203 216 238
194 197 199 208 212 213 212 216 218 216 218 222 226 228 229 233 234 234 217 209 219 243 244 239 248 254 258 250 237 245 243 237 232 229 234 242 250 246 247 248 227 214 225
191 197 202 211 216 217 218 220 224 224 228 229 231 232 234 238 240 240 235 230 221 219 230 232 247 256 255 247 239 234 246 250 244 244 248 243 234 234 236 239 256 245 221
198 200 204 213 219 222 223 226 231 230 230 232 236 237 239 237 239 233 228 228 220 191 216 228 247 265 262 255 247 243 244 259 259 249 251 245 242 239 240 239 241 242 241
200 205 210 215 220 223 222 226 231 234 234 238 235 230 232 235 237 238 237 230 219 204 205 223 254 271 272 267 253 250 245 250 249 243 243 244 241 250 250 248 248 247 249
199 210 218 220 224 227 224 230 228 226 232 237 236 235 231 233 239 236 232 234 250 238 226 227 254 253 263 290 266 251 245 240 243 240 239 241 242 247 261 268 267 261 251
203 208 208 211 214 221 230 239 245 245 245 246 249 251 246 237 233 233 237 248 241 242 242 245 251 254 259 268 272 269 243 244 232 237 238 243 254 258 259 265 266 267 247
157 169 178 190 198 203 218 225 237 254 266 275 282 257 228 224 244 249 244 246 249 253 242 235 243 257 265 266 259 260 258 243 236 237 238 247 254 257 263 269 273 267 236
136 144 150 150 158 167 167 148 196 237 256 244 253 264 260 258 266 235 236 236 243 261 267 263 266 271 277 278 268 253 251 246 240 237 241 245 255 260 265 268 270 256 241
142 147 151 156 163 159 159 156 147 181 268 274 268 267 234 250 230 230 242 256 261 266 265 266 263 257 267 264 256 249 244 257 257 244 243 251 258 259 262 263 261 260 251
130 133 132 140 171 192 198 195 200 184 187 256 300 274 292 283 275 270 267 271 269 256 250 254 259 263 257 252 251 251 250 245 245 245 248 253 256 250 250 249 257 254 254
132 123 118 126 135 147 158 173 163 173 152 119 84 64 67 339 320 300 280 274 276 268 259 257 257 253 254 255 257 253 246 249 247 252 254 252 253 242 233 235 251 254 247
129 123 126 125 123 122 147 140 131 125 111 96 62 33 350 350 344 341 326 306 291 284 279 288 275 258 249 247 247 247 251 257 253 248 251 254 259 255 229 222 231 274 277
126 134 130 137 137 139 141 149 148 139 162 147 132 71 20 8 7 4 356 345 325 309 271 276 286 293 273 274 273 270 268 263 262 258 258 262 248 200 192 217 259 262 256
139 134 113 126 130 141 154 128 138 195 202 189 184 158 53 48 27 23 18 6 360 4 353 302 285 286 283 283 280 279 278 278 275 265 256 238 214 209 227 249 245 234 229
147 124 109 115 103 114 101 103 118 113 59 187 183 201 224 308 319 344 356 5 10 15 16 9 351 309 290 282 271 270 250 282 312 297 250 199 198 221 226 217 215 213 205
128 120 113 114 106 102 93 89 80 80 68 79 27 314 305 305 303 318 326 332 338 343 348 351 341 330 321 295 269 255 256 268 277 271 234 236 238 223 221 222 224 237 244
137 131 122 137 137 122 107 104 89 81 80 70 45 43 58 31 339 329 329 335 333 330 331 324 320 319 317 312 298 280 271 266 266 260 242 239 236 237 241 248 247 239 240
132 128 128 121 124 116 116 103 101 93 77 69 61 53 9 355 356 357 345 339 338 340 340 333 325 319 313 308 301 295 288 277 265 258 256 255 256 259 258 258 257 255 260